Regional Weather Roundup
Issued by NWS

Home | Current Version | Previous Version | Graphics & Text | Print | Product List | Glossary On
Versions: 1 2 3 4 5 6 7 8 9 10 11 12 13 14 15 16 17 18 19 20 21 22 23 24 25 26 27 28 29 30 31 32 33 34 35 36 37 38 39 40 41 42 43 44 45 46 47
000
ASUS45 KSLC 071310
RWRUT

UTAH REGIONAL WEATHER ROUNDUP
NATIONAL WEATHER SERVICE SALT LAKE CITY UT
600 AM MST SUN FEB 07 2016

UTZ001>011-023>025-071400-

NORTHERN UTAH

CITY           SKY/WX    TMP DP  RH WIND       PRES   REMARKS
BRIGHAM CITY     N/A     15  12  88 CALM      30.54R
HILL AFB       PTCLDY    24  14  66 E6        30.51R WCI  17
LOGAN          MOCLDY    17  16  95 S3        30.52R
OGDEN          PTCLDY    21  17  84 SE5       30.52R WCI  15
PROVO AIRPORT  PTCLDY    10   5  79 CALM      30.53R
SALT LAKE CITY PTCLDY    25  19  78 CALM      30.53R
VERNAL         CLOUDY     8   3  80 NE5       30.44R WCI   0
WENDOVER       MOCLDY    21  18  86 NE6       30.52S WCI  14
HEBER CITY     PTCLDY     5   0  78 CALM      30.48R
WEST JORDAN    CLEAR     23  18  80 CALM      30.52R

$$

UTZ012>022-026-027-071400-

SOUTHERN/CENTRAL UTAH

CITY           SKY/WX    TMP DP  RH WIND       PRES   REMARKS
BLANDING       PTCLDY    17  13  84 CALM      30.47S
BRYCE CANYON   PTCLDY     7   2  80 W7        30.44S WCI  -5
CEDAR CITY     MOCLDY     5   2  87 CALM      30.44S
DELTA          CLOUDY     3   1  88 CALM      30.52S VSB 1/4
HANKSVILLE     CLOUDY    18  14  86 CALM      30.54F VSB 1/2
MILFORD        CLOUDY    -4  -7  87 NW5       30.52R FOG     WCI -15
MOAB/CYNLANDS  MOCLDY    10   7  87 CALM      30.49F
PRICE          PTCLDY     9   5  84 NE3       30.42S
ST GEORGE      MOSUNNY   30  23  74 S3        30.43S
KANAB          CLEAR     28  27  93 CALM      30.44S

$$

REGIONAL REPORTS     COLORADO/ARIZONA

CITY           SKY/WX    TMP DP  RH WIND       PRES   REMARKS
CRAIG, CO      CLOUDY     1  -4  79 CALM      30.41R
GRAND JUNCTION CLOUDY    12   9  87 CALM      30.49R
RIFLE          CLOUDY     9   5  84 CALM      30.49R
MONTROSE       CLOUDY    14   8  77 E7        30.47F WCI   4
CORTEZ         CLOUDY    12   7  80 NE9       30.40R WCI   0
PAGE, AZ       PTCLDY    25  22  88 SE6       30.45R WCI  18
GRAND CANYON   MOCLDY    19  10  68 NE5       30.40R WCI  12
KINGMAN        PTCLDY    35  23  61 E8        30.32S WCI  29
FLAGSTAFF      PTCLDY    12   8  84 CALM      30.37S

$$

REGIONAL REPORTS    NEVADA/IDAHO/WYOMING

CITY           SKY/WX    TMP DP  RH WIND       PRES   REMARKS
LAS VEGAS, NV  CLEAR     43  25  49 SW5       30.31S
ELY            MOCLDY     6   0  76 S12       30.50S WCI  -9
ELKO           MOCLDY     8   4  83 E5        30.57R WCI   0
POCATELLO, ID  CLOUDY    29  24  82 S6        30.49R WCI  23
BURLEY         PTCLDY    31  25  78 W5        30.47R WCI  26
EVANSTON, WY   CLOUDY    22  12  65 SW16      30.42R WCI   8
ROCK SPRINGS   CLOUDY    23  15  71 W15       30.37R WCI  10

$$



USA.gov is the U.S. government's official web portal to all federal, state and local government web resources and services.